Home   Weather   Nagoya   Past weeks

Flag for Japan Past Weather in Nagoya, Japan — Yesterday and Last 2 Weeks

Now
50 °F

Partly sunny.


Feels Like: 43 °F
Forecast: 34 / 51 °F
Wind: 23 mph from Northwest

Location: Nagoya Airport

Current Time: Dec 10, 2016 at 8:30:51 am

Latest Report: Dec 10, 2016 at 8:00 am


Visibility: N/A

Pressure: 30.07 "Hg

Humidity: 58%

Dew Point: 36 °F

Location of NagoyaLocation

Past Weather in Nagoya — Graph

°F

Nagoya Temperature Yesterday

Maximum temperature yesterday: 59 °F (at 3:00 pm)
Minimum temperature yesterday: 43 °F (at 3:00 am)
Average temperature yesterday: 51 °F

High & Low Weather Summary for the Past Weeks

 TemperatureHumidityPressure
High63 °F (Dec 5, 1:00 pm)94% (Nov 27, 1:00 am)30.45 "Hg (Nov 27, 1:00 am)
Low43 °F (Dec 3, 6:00 am)35% (Dec 7, 12:00 pm)29.83 "Hg (Nov 27, 4:00 pm)
Average53 °F63%30.11 "Hg
* Reported Nov 25 7:00 am — Dec 10 7:00 am, Nagoya, Weather by CustomWeather, © 2016

Note: Actual official high and low records may vary slightly from our data, if they occured in-between our weather recording intervals... More about our weather records

Advertising

Nagoya Weather History for the Previous 24 Hours

Scroll right to see more
 ConditionsComfort  
Time TempWeatherWind HumidityBarometerVisibility
7:00 am
Sat, Dec 10
50 °FScattered clouds.24 mph67%30.01 "HgN/A
6:30 am50 °FPassing clouds.26 mph67%30.01 "HgN/A
6:00 am50 °FPartly cloudy.23 mph67%30.01 "HgN/A
5:30 am50 °FScattered showers. Partly cloudy.16 mph67%29.98 "HgN/A
5:00 am50 °FPassing clouds.8 mph58%29.98 "HgN/A
4:30 am52 °FPartly cloudy.8 mph54%29.98 "HgN/A
4:00 am52 °FPassing clouds.14 mph62%29.98 "HgN/A
3:30 am52 °FScattered showers. Passing clouds.22 mph58%29.98 "HgN/A
3:00 am50 °FPassing clouds.15 mph58%29.98 "HgN/A
2:30 am50 °FPassing clouds.9 mph58%29.98 "HgN/A
2:00 am52 °FPassing clouds.5 mph54%29.95 "HgN/A
1:30 am52 °FPassing clouds.5 mph54%29.95 "HgN/A
1:00 am52 °FPassing clouds.20 mph62%29.95 "HgN/A
12:30 am52 °FPartly cloudy.18 mph62%29.95 "HgN/A
12:00 am52 °FPassing clouds.21 mph62%29.95 "HgN/A
11:30 pm
Fri, Dec 9
52 °FPassing clouds.20 mph62%29.95 "HgN/A
11:00 pm50 °FPassing clouds.14 mph71%29.95 "HgN/A
10:30 pm54 °FPassing clouds.14 mph58%29.92 "HgN/A
10:00 pm54 °FPassing clouds.18 mph58%29.92 "HgN/A
9:30 pm55 °FPassing clouds.17 mph55%29.92 "HgN/A
9:00 pm55 °FPassing clouds.20 mph59%29.92 "HgN/A
8:30 pm55 °FPassing clouds.17 mph63%29.89 "HgN/A
8:00 pm54 °FPassing clouds.12 mph67%29.89 "HgN/A
7:30 pm55 °FPassing clouds.14 mph59%29.89 "HgN/A
7:00 pm55 °FPassing clouds.16 mph59%29.89 "HgN/A
6:30 pm55 °FPassing clouds.17 mph59%29.86 "HgN/A
6:00 pm52 °FPassing clouds.14 mph62%29.86 "HgN/A
5:30 pm52 °FPassing clouds.21 mph72%29.86 "HgN/A
5:00 pm54 °FPassing clouds.29 mph67%29.86 "HgN/A
4:30 pm59 °FScattered clouds.26 mph55%29.83 "HgN/A
4:00 pm59 °FPassing clouds.10 mph51%29.83 "HgN/A
3:30 pm59 °FPassing clouds.9 mph51%29.83 "HgN/A
3:00 pm59 °FPassing clouds.7 mph51%29.83 "HgN/A
2:30 pm57 °FScattered clouds.7 mph55%29.83 "HgN/A
1:30 pm57 °FPassing clouds.3 mph55%29.86 "HgN/A
1:00 pm55 °FPassing clouds.2 mph59%29.86 "HgN/A
12:30 pm55 °FScattered clouds.3 mph59%29.89 "HgN/A
12:00 pm54 °FScattered clouds.3 mph54%29.89 "HgN/A
11:30 am54 °FPassing clouds.3 mph51%29.92 "HgN/A
11:00 am52 °FPassing clouds.8 mph54%29.92 "HgN/A
10:30 am52 °FScattered clouds.6 mph58%29.95 "HgN/A
10:00 am50 °FPassing clouds.8 mph58%29.95 "HgN/A
9:30 am48 °FPassing clouds.8 mph62%29.95 "HgN/A
9:00 am48 °FPartly sunny.8 mph62%29.98 "HgN/A
8:30 am48 °FPartly sunny.8 mph66%29.98 "HgN/A
8:00 am46 °FPartly sunny.6 mph76%29.98 "HgN/A
Weather by CustomWeather, © 2016

See weather overviewHow to use our weather pages